Flag for Jordan

Past Weather in Amman, Jordan — Yesterday and Last 2 Weeks

Now
91 °F

Clear.


Feels Like: 89 °F
Forecast: 88 / 69 °F
Wind: 12 mph from Northwest

Location: Amman Airport

Current Time: Jul 4, 2020 at 5:08:47 pm

Latest Report: Jul 4, 2020 at 4:00 pm


Visibility: 4 mi

Pressure: 29.80 "Hg (27.21 "Hg at 816m altitude)

Humidity: 28%

Dew Point: 54 °F

Location of AmmanLocation

Past Weather in Amman — Graph

°F

Amman Temperature Yesterday

Maximum temperature yesterday: 97 °F (at 1:00 pm)
Minimum temperature yesterday: 72 °F (at 5:00 am)
Average temperature yesterday: 84 °F

High & Low Weather Summary for the Past Weeks

 TemperatureHumidityPressure
High97 °F (Jul 3, 1:00 pm)88% (Jun 20, 6:00 am)30.04 "Hg (Jun 20, 6:00 am)
Low61 °F (Jun 25, 4:00 am)12% (Jul 3, 4:00 pm)29.74 "Hg (Jul 2, 5:00 pm)
Average78 °F39%29.87 "Hg
* Reported Jun 19 3:00 pm — Jul 4 3:00 pm, Amman. Weather by CustomWeather, © 2020

Note: Actual official high and low records may vary slightly from our data, if they occured in-between our weather recording intervals... More about our weather records

Amman Weather History for the Previous 24 Hours

Scroll right to see more
 ConditionsComfort  
Time TempWeatherWind HumidityBarometerVisibility
3:00 pm
Sat, Jul 4
91 °FClear.12 mph28%29.83 "Hg4 mi
2:00 pm93 °FClear.15 mph21%29.83 "Hg4 mi
1:00 pm91 °FClear.15 mph20%29.83 "Hg4 mi
12:00 pm91 °FClear.12 mph16%29.83 "Hg5 mi
11:00 am91 °FClear.7 mph13%29.80 "Hg5 mi
10:00 am86 °FClear.8 mph19%29.83 "Hg5 mi
9:00 am84 °FClear.9 mph23%29.83 "Hg5 mi
8:00 am81 °FClear.3 mph32%29.86 "Hg4 mi
7:00 am77 °FClear.3 mph36%29.83 "Hg4 mi
6:00 am73 °FClear.7 mph41%29.83 "Hg4 mi
5:00 am73 °FClear.3 mph41%29.83 "Hg4 mi
4:00 am73 °FClear.No wind50%29.83 "Hg4 mi
3:00 am77 °FClear.No wind32%29.83 "Hg4 mi
2:00 am77 °FClear.No wind34%29.80 "Hg4 mi
1:00 am79 °FClear.No wind32%29.83 "Hg4 mi
12:00 am79 °FClear.No wind32%29.83 "Hg4 mi
11:00 pm
Fri, Jul 3
81 °FClear.No wind28%29.83 "Hg4 mi
10:00 pm82 °FClear.No wind26%29.83 "Hg4 mi
9:00 pm84 °FHaze.No wind37%29.80 "Hg3 mi
8:00 pm86 °FClear.9 mph33%29.77 "Hg4 mi
7:00 pm90 °FClear.10 mph29%29.77 "Hg4 mi
6:00 pm95 °FClear.8 mph16%29.77 "Hg4 mi
5:00 pm97 °FClear.6 mph12%29.77 "Hg4 mi
Weather by CustomWeather, © 2020

See weather overview